EW7535 Weather Reports


Display with metric or nautical units.
time (UTC)temp
F
wind
direction
speed
MPH
gust
MPH
rain 1hr
in
rain 24hr
in
rain mn
in
humidity
%
barometer
mb
20260902094546 77 88 0.0 1.0 0.00 0.00 0.00 69 1010.7
20260902093045 77 104 0.0 2.0 0.00 0.00 0.00 68 1010.9
20260902091543 76 118 0.0 0.0 0.00 0.00 0.00 71 1010.9
20260902090041 77 103 0.0 0.0 0.00 0.00 0.00 71 1010.8
20260902084540 76 103 0.0 0.0 0.00 0.00 0.00 71 1010.8
20260902083049 77 103 0.0 0.0 0.00 0.00 0.00 71 1010.8
20260902081536 77 103 0.0 0.0 0.00 0.00 0.00 69 1010.7
20260902080030 78 103 0.0 0.0 0.00 0.00 0.00 68 1010.5
20260902074529 78 103 0.0 2.0 0.00 0.00 0.00 66 1010.5
20260902073030 78 103 0.0 0.0 0.00 0.00 0.00 66 1010.6
20260902071527 79 107 0.0 0.0 0.00 0.00 0.00 66 1010.7
20260902070024 79 77 0.0 0.0 0.00 0.00 0.00 65 1010.6
20260902064523 79 102 0.0 2.0 0.00 0.00 0.00 65 1010.5
20260902063023 78 115 0.0 0.0 0.00 0.00 0.00 66 1010.4
20260902061538 79 115 0.0 0.0 0.00 0.00 0.00 64 1010.4
20260902060020 79 115 0.0 0.0 0.00 0.00 0.00 63 1010.4
20260902054526 80 115 0.0 1.0 0.00 0.00 0.00 62 1010.5
20260902053020 82 100 0.0 1.0 0.00 0.00 0.00 59 1010.4
20260902051519 82 88 0.0 2.0 0.00 0.00 0.00 56 1010.5
20260902050017 83 110 0.0 2.0 0.00 0.00 0.00 55 1010.6
20260902044524 83 64 1.0 4.0 0.00 0.00 0.00 55 1010.5
20260902043017 82 297 0.0 0.0 0.00 0.00 0.00 58 1010.5
20260902041516 83 297 0.0 0.0 0.00 0.00 0.00 57 1010.3
20260902040013 84 305 1.0 5.0 0.00 0.00 0.00 55 1010.2
20260902034513 84 304 1.0 4.0 0.00 0.00 0.00 55 1010.0
20260902033011 84 305 2.0 5.0 0.00 0.00 0.00 53 1009.7
20260902031518 85 302 2.0 6.0 0.00 0.00 0.00 52 1009.4
20260902030009 84 299 3.0 5.0 0.00 0.00 0.00 54 1009.1
20260902024510 85 300 3.0 4.0 0.00 0.00 0.00 53 1008.8
20260902023023 85 303 2.0 4.0 0.00 0.00 0.00 54 1008.7
20260902021508 86 278 2.0 4.0 0.00 0.00 0.00 51 1008.5
20260902020008 87 299 3.0 7.0 0.00 0.00 0.00 48 1008.3
20260902014509 88 300 4.0 7.0 0.00 0.00 0.00 46 1008.2
20260902013002 89 293 4.0 10.0 0.00 0.00 0.00 44 1008.2
20260902011503 90 295 6.0 11.0 0.00 0.00 0.00 44 1008.2
20260902010059 90 290 5.0 10.0 0.00 0.00 0.00 44 1008.2
20260902004559 91 277 5.0 11.0 0.00 0.00 0.00 44 1008.2
20260902003104 91 309 4.0 11.0 0.00 0.00 0.00 44 1008.3
20260902001559 91 275 5.0 11.0 0.00 0.00 0.00 43 1008.4
20260902000056 92 283 7.0 12.0 0.00 0.00 0.00 42 1008.5
20260901234559 92 238 7.0 12.0 0.00 0.00 0.00 43 1008.7
20260901233050 92 293 4.0 11.0 0.00 0.00 0.00 41 1008.9
20260901231606 92 285 6.0 11.0 0.00 0.00 0.00 41 1009.0
20260901230046 93 297 4.0 9.0 0.00 0.00 0.00 41 1009.0
20260901224542 92 278 2.0 10.0 0.00 0.00 0.00 43 1009.2
20260901223041 92 264 5.0 9.0 0.00 0.00 0.00 43 1009.3
20260901221604 91 287 2.0 8.0 0.00 0.00 0.00 44 1009.6
20260901220042 91 264 5.0 9.0 0.00 0.00 0.00 43 1009.7
20260901214531 93 276 1.0 6.0 0.00 0.00 0.00 42 1010.0
20260901213028 94 260 0.0 5.0 0.00 0.04 0.00 40 1010.3
20260901211527 93 285 0.0 3.0 0.00 0.04 0.00 42 1010.6
20260901210029 91 274 3.0 8.0 0.00 0.04 0.00 42 1010.8
20260901204521 91 286 3.0 8.0 0.00 0.04 0.00 43 1011.0
20260901203017 90 294 6.0 10.0 0.00 0.14 0.00 43 1011.3
20260901201515 91 298 3.0 5.0 0.00 0.14 0.00 45 1011.5
20260901200025 90 281 4.0 6.0 0.00 0.14 0.00 44 1011.7
20260901194511 91 259 1.0 3.0 0.00 0.14 0.00 45 1012.0
20260901193010 90 252 1.0 5.0 0.00 0.24 0.00 46 1012.2
20260901191518 88 257 0.0 3.0 0.00 0.24 0.00 44 1012.4
20260901190005 91 271 0.0 4.0 0.00 0.24 0.00 46 1012.6
20260901184504 88 289 0.0 4.0 0.00 0.24 0.00 48 1012.8
20260901183001 87 262 0.0 3.0 0.00 0.39 0.00 49 1012.9
20260901181501 88 281 0.0 0.0 0.00 0.39 0.00 46 1013.0
20260901180059 88 181 0.0 4.0 0.00 0.39 0.00 48 1013.1
20260901174528 88 96 0.0 3.0 0.00 0.39 0.00 47 1013.2
20260901173025 87 176 0.0 0.0 0.00 0.47 0.00 50 1013.2
20260901171520 86 172 0.0 3.0 0.00 0.47 0.00 53 1013.3
20260901170019 85 263 0.0 3.0 0.00 0.47 0.00 50 1013.3
20260901164517 84 160 0.0 3.0 0.00 0.47 0.00 55 1013.3
20260901163014 83 115 0.0 2.0 0.00 0.47 0.00 60 1013.2
20260901161523 83 119 1.0 4.0 0.00 0.47 0.00 58 1013.3
20260901160009 83 148 0.0 4.0 0.00 0.47 0.00 61 1013.4
20260901154511 81 121 0.0 3.0 0.00 0.47 0.00 61 1013.4
20260901134601 71 94 0.0 4.0 0.00 0.47 0.00 85 1013.1
20260901133058 70 105 0.0 2.0 0.00 0.61 0.00 87 1013.0
20260901131553 69 136 0.0 2.0 0.00 0.61 0.00 88 1012.8
20260901130051 69 96 0.0 2.0 0.00 0.61 0.00 88 1012.6
20260901124548 69 105 0.0 2.0 0.00 0.61 0.00 88 1012.4
20260901123045 69 96 0.0 2.0 0.00 0.80 0.00 87 1012.2
20260901121515 70 128 0.0 0.0 0.00 0.80 0.00 84 1012.1
20260901120018 71 128 0.0 1.0 0.00 0.80 0.00 83 1012.0
20260901114540 71 92 0.0 0.0 0.00 0.80 0.00 83 1011.9
20260901113040 70 102 0.0 0.0 0.00 0.91 0.00 84 1012.0
20260901111536 70 101 0.0 0.0 0.00 0.91 0.00 84 1012.0
20260901110035 70 101 0.0 0.0 0.00 0.91 0.00 84 1011.8
20260901104533 70 101 0.0 0.0 0.00 0.91 0.00 84 1011.9
20260901103031 71 101 0.0 0.0 0.00 0.91 0.00 83 1011.8
20260901101550 71 101 0.0 2.0 0.00 0.91 0.00 82 1011.7
20260901100028 71 124 0.0 0.0 0.00 0.91 0.00 83 1011.5